Time,TemperatureF,DewpointF,PressureIn,WindDirection,WindDirectionDegrees,WindSpeedMPH,WindSpeedGustMPH,Humidity,HourlyPrecipIn,Conditions,Clouds,dailyrainin,SoftwareType,DateUTC
2013-06-04 00:00:00,53.0,50.0,30.10,North,10,10.0,11.0,91,-99.99,,,-99.99,,2013-06-04 07:00:00,
2013-06-04 00:11:00,53.0,50.0,30.10,North,10,10.0,11.0,91,-99.99,,,-99.99,,2013-06-04 07:11:00,
2013-06-04 00:21:00,53.0,50.0,30.10,North,10,10.0,11.0,91,-99.99,,,-99.99,,2013-06-04 07:21:00,
2013-06-04 00:32:00,53.0,50.0,30.10,North,10,10.0,11.0,91,-99.99,,,-99.99,,2013-06-04 07:32:00,
2013-06-04 00:41:00,53.0,50.0,30.10,North,10,10.0,11.0,91,-99.99,,,-99.99,,2013-06-04 07:41:00,
2013-06-04 00:52:00,53.0,50.0,30.10,North,10,10.0,11.0,91,-99.99,,,-99.99,,2013-06-04 07:52:00,
2013-06-04 01:00:00,53.0,50.0,30.09,North,360,9.0,10.0,90,-99.99,,,-99.99,,2013-06-04 08:00:00,
2013-06-04 01:11:00,53.0,50.0,30.09,North,360,9.0,10.0,90,-99.99,,,-99.99,,2013-06-04 08:11:00,
2013-06-04 01:21:00,53.0,50.0,30.09,North,360,9.0,10.0,90,-99.99,,,-99.99,,2013-06-04 08:21:00,
2013-06-04 01:32:00,53.0,50.0,30.09,North,360,9.0,10.0,90,-99.99,,,-99.99,,2013-06-04 08:32:00,
2013-06-04 01:41:00,53.0,50.0,30.09,North,360,9.0,10.0,90,-99.99,,,-99.99,,2013-06-04 08:41:00,
2013-06-04 01:51:00,53.0,50.0,30.09,North,360,9.0,10.0,90,-99.99,,,-99.99,,2013-06-04 08:51:00,
2013-06-04 02:00:00,51.0,50.0,30.09,NE,50,2.0,2.0,94,-99.99,,,-99.99,,2013-06-04 09:00:00,
2013-06-04 02:12:00,51.0,50.0,30.09,NE,50,2.0,2.0,94,-99.99,,,-99.99,,2013-06-04 09:12:00,
2013-06-04 02:21:00,51.0,50.0,30.09,NE,50,2.0,2.0,94,-99.99,,,-99.99,,2013-06-04 09:21:00,
2013-06-04 02:32:00,51.0,50.0,30.09,NE,50,2.0,2.0,94,-99.99,,,-99.99,,2013-06-04 09:32:00,
2013-06-04 02:42:00,51.0,50.0,30.09,NE,50,2.0,2.0,94,-99.99,,,-99.99,,2013-06-04 09:42:00,
2013-06-04 02:53:00,51.0,50.0,30.09,NE,50,2.0,2.0,94,-99.99,,,-99.99,,2013-06-04 09:53:00,
2013-06-04 03:00:00,49.0,49.0,30.08,East,90,6.0,6.0,99,-99.99,,,-99.99,,2013-06-04 10:00:00,
2013-06-04 03:12:00,49.0,49.0,30.08,East,90,6.0,6.0,99,-99.99,,,-99.99,,2013-06-04 10:12:00,
2013-06-04 03:22:00,49.0,49.0,30.08,East,90,6.0,6.0,99,-99.99,,,-99.99,,2013-06-04 10:22:00,
2013-06-04 03:32:00,49.0,49.0,30.08,East,90,6.0,6.0,99,-99.99,,,-99.99,,2013-06-04 10:32:00,
2013-06-04 03:42:00,49.0,49.0,30.08,East,90,6.0,6.0,99,-99.99,,,-99.99,,2013-06-04 10:42:00,
2013-06-04 03:52:00,49.0,49.0,30.08,East,90,6.0,6.0,99,-99.99,,,-99.99,,2013-06-04 10:52:00,
2013-06-04 04:11:00,49.0,49.0,30.09,East,90,6.0,6.0,100,-99.99,,,-99.99,,2013-06-04 11:11:00,
2013-06-04 04:21:00,49.0,49.0,30.09,East,90,6.0,6.0,100,-99.99,,,-99.99,,2013-06-04 11:21:00,
2013-06-04 04:31:00,49.0,49.0,30.09,East,90,6.0,6.0,100,-99.99,,,-99.99,,2013-06-04 11:31:00,
2013-06-04 04:41:00,49.0,49.0,30.09,East,90,6.0,6.0,100,-99.99,,,-99.99,,2013-06-04 11:41:00,
2013-06-04 04:52:00,49.0,49.0,30.09,East,90,6.0,6.0,100,-99.99,,,-99.99,,2013-06-04 11:52:00,
2013-06-04 05:00:00,50.0,50.0,30.09,NE,40,2.0,2.0,100,-99.99,,,-99.99,,2013-06-04 12:00:00,
2013-06-04 05:11:00,50.0,50.0,30.09,NE,40,2.0,2.0,100,-99.99,,,-99.99,,2013-06-04 12:11:00,
2013-06-04 05:21:00,50.0,50.0,30.09,NE,40,2.0,2.0,100,-99.99,,,-99.99,,2013-06-04 12:21:00,
2013-06-04 05:31:00,50.0,50.0,30.09,NE,40,2.0,2.0,100,-99.99,,,-99.99,,2013-06-04 12:31:00,
2013-06-04 05:42:00,50.0,50.0,30.09,NE,40,2.0,2.0,100,-99.99,,,-99.99,,2013-06-04 12:42:00,
2013-06-04 05:51:00,50.0,50.0,30.09,NE,40,2.0,2.0,100,-99.99,,,-99.99,,2013-06-04 12:51:00,
2013-06-04 06:00:00,48.0,48.0,30.08,East,80,3.0,3.0,100,-99.99,,,-99.99,,2013-06-04 13:00:00,
2013-06-04 06:11:00,48.0,48.0,30.08,East,80,3.0,3.0,100,-99.99,,,-99.99,,2013-06-04 13:11:00,
2013-06-04 06:21:00,48.0,48.0,30.08,East,80,3.0,3.0,100,-99.99,,,-99.99,,2013-06-04 13:21:00,
2013-06-04 06:31:00,48.0,48.0,30.08,East,80,3.0,3.0,100,-99.99,,,-99.99,,2013-06-04 13:31:00,
2013-06-04 06:41:00,48.0,48.0,30.08,East,80,3.0,3.0,100,-99.99,,,-99.99,,2013-06-04 13:41:00,
2013-06-04 06:52:00,48.0,48.0,30.08,East,80,3.0,3.0,100,-99.99,,,-99.99,,2013-06-04 13:52:00,
2013-06-04 07:00:00,49.0,49.0,30.09,East,80,5.0,5.0,100,-99.99,,,-99.99,,2013-06-04 14:00:00,
2013-06-04 07:11:00,49.0,49.0,30.09,East,80,5.0,5.0,100,-99.99,,,-99.99,,2013-06-04 14:11:00,
2013-06-04 07:21:00,49.0,49.0,30.09,East,80,5.0,5.0,100,-99.99,,,-99.99,,2013-06-04 14:21:00,
2013-06-04 07:31:00,49.0,49.0,30.09,East,80,5.0,5.0,100,-99.99,,,-99.99,,2013-06-04 14:31:00,
2013-06-04 07:42:00,49.0,49.0,30.09,East,80,5.0,5.0,100,-99.99,,,-99.99,,2013-06-04 14:42:00,
2013-06-04 07:51:00,49.0,49.0,30.09,East,80,5.0,5.0,100,-99.99,,,-99.99,,2013-06-04 14:51:00,
2013-06-04 08:00:00,50.0,50.0,30.09,North,360,2.0,3.0,100,-99.99,,,-99.99,,2013-06-04 15:00:00,
2013-06-04 08:21:00,50.0,50.0,30.09,North,360,2.0,3.0,100,-99.99,,,-99.99,,2013-06-04 15:21:00,
2013-06-04 08:32:00,50.0,50.0,30.09,North,360,2.0,3.0,100,-99.99,,,-99.99,,2013-06-04 15:32:00,
2013-06-04 08:42:00,50.0,50.0,30.09,North,360,2.0,3.0,100,-99.99,,,-99.99,,2013-06-04 15:42:00,
2013-06-04 08:53:00,50.0,50.0,30.09,North,360,2.0,3.0,100,-99.99,,,-99.99,,2013-06-04 15:53:00,
2013-06-04 09:00:00,50.0,49.0,30.09,North,350,11.0,13.0,96,-99.99,,,-99.99,,2013-06-04 16:00:00,
2013-06-04 09:12:00,50.0,49.0,30.09,North,350,11.0,13.0,96,-99.99,,,-99.99,,2013-06-04 16:12:00,
2013-06-04 09:22:00,50.0,49.0,30.09,North,350,11.0,13.0,96,-99.99,,,-99.99,,2013-06-04 16:22:00,
2013-06-04 09:32:00,50.0,49.0,30.09,North,350,11.0,13.0,96,-99.99,,,-99.99,,2013-06-04 16:32:00,
2013-06-04 09:42:00,50.0,49.0,30.09,North,350,11.0,13.0,96,-99.99,,,-99.99,,2013-06-04 16:42:00,
2013-06-04 09:52:00,50.0,49.0,30.09,North,350,11.0,13.0,96,-99.99,,,-99.99,,2013-06-04 16:52:00,
2013-06-04 10:00:00,50.0,49.0,30.09,North,350,11.0,14.0,96,-99.99,,,-99.99,,2013-06-04 17:00:00,
2013-06-04 10:11:00,50.0,49.0,30.09,North,350,11.0,14.0,96,-99.99,,,-99.99,,2013-06-04 17:11:00,
2013-06-04 10:22:00,50.0,49.0,30.09,North,350,11.0,14.0,96,-99.99,,,-99.99,,2013-06-04 17:22:00,
2013-06-04 10:32:00,50.0,49.0,30.09,North,350,11.0,14.0,96,-99.99,,,-99.99,,2013-06-04 17:32:00,
2013-06-04 10:42:00,50.0,49.0,30.09,North,350,11.0,14.0,96,-99.99,,,-99.99,,2013-06-04 17:42:00,
2013-06-04 10:51:00,50.0,49.0,30.09,North,350,11.0,14.0,96,-99.99,,,-99.99,,2013-06-04 17:51:00,
2013-06-04 11:00:00,51.0,51.0,30.09,North,350,16.0,17.0,98,-99.99,,,-99.99,,2013-06-04 18:00:00,
2013-06-04 11:11:00,51.0,51.0,30.09,North,350,16.0,17.0,98,-99.99,,,-99.99,,2013-06-04 18:11:00,
2013-06-04 11:22:00,51.0,51.0,30.09,North,350,16.0,17.0,98,-99.99,,,-99.99,,2013-06-04 18:22:00,
2013-06-04 11:31:00,51.0,51.0,30.09,North,350,16.0,17.0,98,-99.99,,,-99.99,,2013-06-04 18:31:00,
2013-06-04 11:42:00,51.0,51.0,30.09,North,350,16.0,17.0,98,-99.99,,,-99.99,,2013-06-04 18:42:00,
2013-06-04 11:52:00,51.0,51.0,30.09,North,350,16.0,17.0,98,-99.99,,,-99.99,,2013-06-04 18:52:00,
2013-06-04 12:00:00,52.0,52.0,30.08,North,350,18.0,21.0,100,-99.99,,,-99.99,,2013-06-04 19:00:00,
2013-06-04 12:21:00,52.0,52.0,30.08,North,350,18.0,21.0,100,-99.99,,,-99.99,,2013-06-04 19:21:00,
2013-06-04 12:31:00,52.0,52.0,30.08,North,350,18.0,21.0,100,-99.99,,,-99.99,,2013-06-04 19:31:00,
2013-06-04 12:41:00,52.0,52.0,30.08,North,350,18.0,21.0,100,-99.99,,,-99.99,,2013-06-04 19:41:00,
2013-06-04 12:52:00,52.0,52.0,30.08,North,350,18.0,21.0,100,-99.99,,,-99.99,,2013-06-04 19:52:00,
2013-06-04 13:00:00,52.0,52.0,30.07,NNW,340,17.0,21.0,100,-99.99,,,-99.99,,2013-06-04 20:00:00,
2013-06-04 13:21:00,52.0,52.0,30.07,NNW,340,17.0,21.0,100,-99.99,,,-99.99,,2013-06-04 20:21:00,
2013-06-04 13:31:00,52.0,52.0,30.07,NNW,340,17.0,21.0,100,-99.99,,,-99.99,,2013-06-04 20:31:00,
2013-06-04 13:41:00,52.0,52.0,30.07,NNW,340,17.0,21.0,100,-99.99,,,-99.99,,2013-06-04 20:41:00,
2013-06-04 13:52:00,52.0,52.0,30.07,NNW,340,17.0,21.0,100,-99.99,,,-99.99,,2013-06-04 20:52:00,
2013-06-04 14:00:00,53.0,53.0,30.06,NNW,340,20.0,22.0,100,-99.99,,,-99.99,,2013-06-04 21:00:00,
2013-06-04 14:21:00,53.0,53.0,30.06,NNW,340,20.0,22.0,100,-99.99,,,-99.99,,2013-06-04 21:21:00,
2013-06-04 14:33:00,53.0,53.0,30.06,NNW,340,20.0,22.0,100,-99.99,,,-99.99,,2013-06-04 21:33:00,
2013-06-04 14:42:00,53.0,53.0,30.06,NNW,340,20.0,22.0,100,-99.99,,,-99.99,,2013-06-04 21:42:00,
2013-06-04 14:52:00,53.0,53.0,30.06,NNW,340,20.0,22.0,100,-99.99,,,-99.99,,2013-06-04 21:52:00,
2013-06-04 15:00:00,54.0,54.0,30.06,NNW,340,21.0,24.0,100,-99.99,,,-99.99,,2013-06-04 22:00:00,
2013-06-04 15:22:00,54.0,54.0,30.06,NNW,340,21.0,24.0,100,-99.99,,,-99.99,,2013-06-04 22:22:00,
2013-06-04 15:32:00,54.0,54.0,30.06,NNW,340,21.0,24.0,100,-99.99,,,-99.99,,2013-06-04 22:32:00,
2013-06-04 15:41:00,54.0,54.0,30.06,NNW,340,21.0,24.0,100,-99.99,,,-99.99,,2013-06-04 22:41:00,
2013-06-04 15:52:00,54.0,54.0,30.06,NNW,340,21.0,24.0,100,-99.99,,,-99.99,,2013-06-04 22:52:00,
2013-06-04 16:00:00,54.0,54.0,30.05,North,350,13.0,15.0,100,-99.99,,,-99.99,,2013-06-04 23:00:00,
2013-06-04 16:21:00,54.0,54.0,30.05,North,350,13.0,15.0,100,-99.99,,,-99.99,,2013-06-04 23:21:00,
2013-06-04 16:32:00,54.0,54.0,30.05,North,350,13.0,15.0,100,-99.99,,,-99.99,,2013-06-04 23:32:00,
2013-06-04 16:41:00,54.0,54.0,30.05,North,350,13.0,15.0,100,-99.99,,,-99.99,,2013-06-04 23:41:00,
2013-06-04 16:51:00,54.0,54.0,30.05,North,350,13.0,15.0,100,-99.99,,,-99.99,,2013-06-04 23:51:00,
2013-06-04 17:00:00,54.0,54.0,30.04,NNW,340,18.0,21.0,100,-99.99,,,-99.99,,2013-06-05 00:00:00,
2013-06-04 17:21:00,54.0,54.0,30.04,NNW,340,18.0,21.0,100,-99.99,,,-99.99,,2013-06-05 00:21:00,
2013-06-04 17:31:00,54.0,54.0,30.04,NNW,340,18.0,21.0,100,-99.99,,,-99.99,,2013-06-05 00:31:00,
2013-06-04 17:42:00,54.0,54.0,30.04,NNW,340,18.0,21.0,100,-99.99,,,-99.99,,2013-06-05 00:42:00,
2013-06-04 17:51:00,54.0,54.0,30.04,NNW,340,18.0,21.0,100,-99.99,,,-99.99,,2013-06-05 00:51:00,
2013-06-04 18:00:00,54.0,54.0,30.04,NNW,340,22.0,24.0,100,-99.99,,,-99.99,,2013-06-05 01:00:00,
2013-06-04 18:21:00,54.0,54.0,30.04,NNW,340,22.0,24.0,100,-99.99,,,-99.99,,2013-06-05 01:21:00,
2013-06-04 18:31:00,54.0,54.0,30.04,NNW,340,22.0,24.0,100,-99.99,,,-99.99,,2013-06-05 01:31:00,
2013-06-04 18:42:00,54.0,54.0,30.04,NNW,340,22.0,24.0,100,-99.99,,,-99.99,,2013-06-05 01:42:00,
2013-06-04 18:52:00,54.0,54.0,30.04,NNW,340,22.0,24.0,100,-99.99,,,-99.99,,2013-06-05 01:52:00,
2013-06-04 19:00:00,53.0,53.0,30.03,NNW,340,21.0,24.0,100,-99.99,,,-99.99,,2013-06-05 02:00:00,
2013-06-04 19:21:00,53.0,53.0,30.03,NNW,340,21.0,24.0,100,-99.99,,,-99.99,,2013-06-05 02:21:00,
2013-06-04 19:31:00,53.0,53.0,30.03,NNW,340,21.0,24.0,100,-99.99,,,-99.99,,2013-06-05 02:31:00,
2013-06-04 19:41:00,53.0,53.0,30.03,NNW,340,21.0,24.0,100,-99.99,,,-99.99,,2013-06-05 02:41:00,
2013-06-04 19:51:00,53.0,53.0,30.03,NNW,340,21.0,24.0,100,-99.99,,,-99.99,,2013-06-05 02:51:00,
2013-06-04 20:00:00,54.0,54.0,30.03,North,350,16.0,17.0,100,-99.99,,,-99.99,,2013-06-05 03:00:00,
2013-06-04 20:21:00,54.0,54.0,30.03,North,350,16.0,17.0,100,-99.99,,,-99.99,,2013-06-05 03:21:00,
2013-06-04 20:32:00,54.0,54.0,30.03,North,350,16.0,17.0,100,-99.99,,,-99.99,,2013-06-05 03:32:00,
2013-06-04 20:42:00,54.0,54.0,30.03,North,350,16.0,17.0,100,-99.99,,,-99.99,,2013-06-05 03:42:00,
2013-06-04 20:53:00,54.0,54.0,30.03,North,350,16.0,17.0,100,-99.99,,,-99.99,,2013-06-05 03:53:00,
2013-06-04 21:00:00,53.0,53.0,30.04,North,360,17.0,20.0,100,-99.99,,,-99.99,,2013-06-05 04:00:00,
2013-06-04 21:22:00,53.0,53.0,30.04,North,360,17.0,20.0,100,-99.99,,,-99.99,,2013-06-05 04:22:00,
2013-06-04 21:32:00,53.0,53.0,30.04,North,360,17.0,20.0,100,-99.99,,,-99.99,,2013-06-05 04:32:00,
2013-06-04 21:42:00,53.0,53.0,30.04,North,360,17.0,20.0,100,-99.99,,,-99.99,,2013-06-05 04:42:00,
2013-06-04 21:53:00,53.0,53.0,30.04,North,360,17.0,20.0,100,-99.99,,,-99.99,,2013-06-05 04:53:00,
2013-06-04 22:00:00,53.0,53.0,30.06,North,360,16.0,20.0,100,-99.99,,,-99.99,,2013-06-05 05:00:00,
2013-06-04 22:22:00,53.0,53.0,30.06,North,360,16.0,20.0,100,-99.99,,,-99.99,,2013-06-05 05:22:00,
2013-06-04 22:31:00,53.0,53.0,30.06,North,360,16.0,20.0,100,-99.99,,,-99.99,,2013-06-05 05:31:00,
2013-06-04 22:42:00,53.0,53.0,30.06,North,360,16.0,20.0,100,-99.99,,,-99.99,,2013-06-05 05:42:00,
2013-06-04 22:52:00,53.0,53.0,30.06,North,360,16.0,20.0,100,-99.99,,,-99.99,,2013-06-05 05:52:00,
2013-06-04 23:00:00,54.0,54.0,30.05,NNW,340,17.0,20.0,100,-99.99,,,-99.99,,2013-06-05 06:00:00,
2013-06-04 23:21:00,54.0,54.0,30.05,NNW,340,17.0,20.0,100,-99.99,,,-99.99,,2013-06-05 06:21:00,
2013-06-04 23:41:00,54.0,54.0,30.05,NNW,340,17.0,20.0,100,-99.99,,,-99.99,,2013-06-05 06:41:00,
2013-06-04 23:51:00,54.0,54.0,30.05,NNW,340,17.0,20.0,100,-99.99,,,-99.99,,2013-06-05 06:51:00,